GFSCGP_sfc_temp_000.txt.gz
Temp
69 68 60 62 63 61 60 58 60 65 65 60 63 65 70 75 74 73 72 72 73 74 76 74 71 71 70 70 70 70 69 69 70 69 69 70 69 70 71 73 70 69 71 69
67 60 63 64 63 61 61 59 60 63 65 61 62 62 71 71 70 69 69 71 71 72 72 70 70 69 68 69 70 70 70 70 70 72 72 72 70 71 73 72 68 68 68 68
60 61 64 62 61 59 61 58 58 56 61 66 60 67 67 69 70 68 70 70 70 68 70 69 68 68 68 67 69 70 71 70 70 70 70 69 68 68 68 69 70 69 67 67
62 64 61 61 59 59 55 59 58 57 55 54 59 54 64 66 68 69 69 70 71 70 69 68 69 68 67 68 69 69 70 70 70 69 68 66 67 66 69 67 69 68 67 66
58 59 59 58 57 59 56 60 58 55 53 53 54 52 63 65 64 66 69 69 70 70 68 68 69 69 70 68 68 68 69 68 69 67 66 65 64 66 67 66 63 64 65 65
60 64 62 60 62 59 61 59 59 54 53 44 52 52 60 65 62 65 69 69 69 70 69 69 68 68 68 68 66 66 66 67 67 65 64 62 62 63 62 63 61 63 63 64
59 59 62 61 59 59 61 56 47 45 45 46 53 50 58 65 66 65 65 66 68 69 69 69 69 67 67 67 65 65 65 64 66 63 62 61 61 60 59 59 60 58 58 59
50 50 58 60 57 53 53 53 44 31 40 45 56 46 61 67 68 68 66 67 67 69 70 69 68 68 67 66 66 65 65 63 65 61 60 59 59 59 60 56 58 57 55 54
49 51 59 57 59 58 52 51 54 44 38 37 50 56 63 68 65 65 67 68 68 68 68 69 69 66 66 66 65 64 63 63 61 59 57 56 56 55 55 55 55 56 55 56
52 45 55 57 58 58 55 57 45 47 32 32 48 50 54 60 63 65 65 66 65 67 67 68 69 68 67 67 66 63 61 61 59 57 55 55 54 54 55 54 53 53 53 53
56 48 51 57 56 53 53 51 50 49 45 36 35 46 63 61 64 63 65 65 65 67 67 67 68 69 68 65 61 58 58 59 56 55 53 52 54 54 53 53 53 52 52 52
55 50 42 49 59 56 55 51 50 41 41 43 37 40 64 65 65 62 63 66 67 68 68 68 67 66 64 60 59 56 57 56 55 54 52 52 53 52 51 52 51 51 50 50
55 46 39 48 51 53 50 52 52 50 42 36 32 42 66 66 66 67 65 66 66 65 66 66 66 63 61 58 57 55 55 55 54 53 52 51 50 51 51 51 51 50 49 48
53 49 43 40 48 54 47 51 53 47 34 39 42 47 56 60 62 65 65 65 65 63 63 62 62 63 59 57 56 54 54 54 53 53 52 50 50 49 50 50 49 48 47 46
54 41 48 49 51 49 47 47 48 45 45 36 43 48 55 59 61 62 64 62 60 59 59 59 59 60 58 55 55 54 54 52 52 51 51 51 49 49 49 48 47 47 46 46
53 40 41 38 47 47 43 47 47 48 48 49 49 49 60 63 65 62 60 60 56 56 57 57 57 56 55 54 53 53 52 52 53 51 50 50 48 48 47 47 45 45 45 45
45 40 36 33 44 39 32 40 47 51 54 50 43 52 60 59 59 56 55 56 53 55 51 51 54 55 54 53 54 53 53 53 50 50 49 48 47 45 45 45 44 44 43 43
40 36 37 33 35 29 52 60 58 52 52 54 55 56 58 59 58 54 56 54 51 47 46 50 53 53 53 54 54 52 52 50 49 48 47 47 45 44 44 43 43 43 42 41
51 40 35 32 35 43 49 55 51 47 47 57 56 57 57 55 51 49 57 50 47 43 47 49 48 51 52 50 49 50 50 50 47 46 45 45 44 43 42 41 40 41 40 39
45 42 36 36 31 31 47 57 55 53 40 55 54 51 47 47 37 47 56 48 44 47 51 46 45 44 43 47 50 49 49 48 46 45 43 44 43 42 41 41 40 40 40 38
35 34 32 32 31 39 54 53 53 35 42 51 53 53 52 48 50 52 46 44 49 50 50 44 42 43 49 50 49 46 48 45 45 43 43 43 42 41 40 40 40 39 37 33
39 34 32 34 32 31 57 50 41 51 55 57 56 55 53 51 48 46 43 45 48 46 40 40 44 47 50 50 48 48 47 45 43 42 42 41 41 40 39 39 38 37 34 32
34 41 42 44 44 58 59 54 57 59 55 55 54 56 52 46 48 42 42 45 46 38 41 46 47 47 49 47 47 46 43 43 41 41 40 40 40 39 39 37 34 34 35 31
45 51 40 41 49 54 54 58 59 59 56 57 55 50 47 43 42 41 44 48 38 38 42 47 47 47 46 46 44 45 41 40 40 39 38 38 37 36 37 36 36 34 31 29
45 43 39 41 47 53 55 57 58 57 58 56 53 49 46 42 43 43 47 40 37 40 45 46 46 45 45 44 43 42 41 39 38 36 35 36 35 34 34 35 34 32 32 30
43 41 38 39 53 52 52 58 59 57 54 53 49 47 46 49 46 47 42 37 38 41 45 46 45 45 44 43 42 41 40 38 36 33 34 33 32 32 33 33 32 34 32 31

GFSCGP_sfc_temp_006.txt.gz
Temp
78 70 63 67 69 69 68 65 64 69 74 69 67 68 73 79 78 76 76 76 76 77 81 81 78 75 73 72 71 70 70 68 67 65 63 62 61 63 63 65 66 64 64 64
72 64 69 72 72 68 68 65 63 67 71 68 67 67 74 75 74 75 75 74 74 75 77 78 77 73 71 70 70 69 70 69 67 66 65 64 64 64 65 64 63 64 63 63
66 67 72 70 68 64 65 61 60 59 66 71 68 67 70 73 74 74 75 75 75 73 72 74 74 72 70 68 68 70 69 69 67 66 66 64 63 61 61 61 61 62 62 62
68 71 68 67 66 64 57 67 63 61 59 53 66 52 67 71 69 72 73 72 72 73 74 74 73 71 70 68 68 68 69 69 69 66 64 61 61 60 62 60 62 64 62 61
63 66 64 64 63 66 60 66 63 64 61 59 62 56 64 70 68 70 72 72 71 72 71 71 71 72 70 69 67 66 67 67 68 65 63 61 59 60 59 59 60 60 60 62
68 72 69 66 68 69 68 65 65 67 60 47 60 57 58 65 68 70 73 73 71 70 69 71 71 72 70 69 67 66 66 67 67 65 63 59 57 57 57 57 55 57 57 56
67 66 69 68 63 69 65 58 46 43 46 45 61 55 59 69 73 72 70 69 69 68 68 68 69 69 68 67 67 66 66 66 66 63 62 60 58 57 56 56 55 55 54 54
55 52 64 67 62 57 59 57 44 34 39 42 56 50 61 74 75 74 73 71 70 69 69 69 70 69 68 68 67 67 67 66 66 64 63 60 59 57 56 56 55 52 52 52
52 55 68 66 66 63 58 53 60 46 45 40 48 58 68 73 72 71 71 72 68 68 68 70 70 68 68 67 66 64 65 67 66 64 61 59 58 57 55 56 53 52 52 55
59 47 63 65 67 66 60 64 47 46 33 34 47 48 52 63 64 66 67 68 68 69 68 69 68 66 67 67 67 65 64 64 64 63 61 58 56 55 54 53 52 52 51 51
62 53 53 60 60 57 57 54 55 55 48 37 34 44 62 60 63 64 66 67 67 67 68 67 67 68 66 66 65 64 63 62 60 59 58 53 54 53 52 52 51 51 50 50
59 52 43 51 63 66 62 57 57 40 40 44 41 42 63 65 68 66 67 68 68 68 68 67 66 66 65 63 62 63 61 59 58 58 54 52 52 52 50 50 50 50 49 49
57 49 40 48 57 61 56 59 59 56 45 40 33 41 65 66 66 68 66 65 65 66 65 65 66 63 62 60 59 60 60 58 57 56 53 51 50 50 49 49 49 49 49 48
56 51 46 39 46 54 48 53 55 53 40 42 44 48 57 62 63 65 64 62 63 63 64 64 62 61 60 59 58 59 59 57 56 55 53 50 49 50 49 49 48 48 48 47
56 43 49 51 53 52 49 49 52 50 50 42 47 51 57 62 63 60 61 61 61 61 61 58 57 59 58 57 57 58 58 56 55 53 52 51 49 49 49 48 47 47 46 46
56 40 41 39 48 50 45 49 51 51 52 52 53 53 63 64 62 60 59 59 58 55 55 55 57 55 55 56 56 55 56 55 54 51 48 48 48 50 48 46 45 45 44 43
50 41 34 35 44 40 34 43 49 52 56 55 45 54 62 59 56 55 55 57 52 53 53 54 52 52 55 55 54 52 53 50 48 46 46 46 47 47 46 46 45 42 40 40
45 37 34 32 33 28 50 60 57 53 56 58 57 58 60 57 57 57 58 52 50 50 51 52 52 54 55 52 49 48 48 49 46 45 45 48 48 46 45 44 42 39 39 38
59 38 35 32 34 42 47 53 52 49 48 58 55 55 55 55 53 51 56 53 49 50 52 52 55 54 50 48 46 44 44 44 44 47 48 48 46 44 43 41 38 38 37 37
50 41 39 36 31 28 45 56 61 59 40 53 52 50 50 49 38 42 53 52 52 52 54 54 53 50 48 45 47 47 47 47 48 48 47 47 46 44 42 39 37 37 36 36
37 35 33 35 32 38 53 59 59 36 37 49 51 49 49 45 45 49 53 53 53 54 54 54 50 46 46 49 49 48 49 48 49 47 46 46 45 43 41 39 38 37 35 33
40 36 34 33 32 31 60 57 40 49 54 53 50 49 48 50 51 52 53 50 52 52 52 49 46 46 48 49 47 48 48 48 47 46 44 43 42 42 42 37 36 35 33 31
37 44 41 43 43 55 59 56 57 55 52 51 51 54 52 50 51 52 51 52 50 48 46 46 46 46 47 48 50 47 45 47 44 43 41 40 40 39 39 35 33 32 32 30
46 53 42 42 49 54 55 57 57 57 53 54 55 52 53 52 52 52 52 51 49 45 43 44 44 44 46 49 48 46 45 44 43 39 38 37 36 35 35 35 34 32 29 28
45 48 43 42 48 52 54 55 56 56 56 53 54 52 54 53 52 53 49 49 44 40 43 43 45 45 46 48 47 46 45 43 39 36 35 35 34 33 33 33 32 30 29 29
47 44 39 38 50 48 50 57 58 54 50 51 54 53 55 53 50 49 46 45 41 41 43 45 45 47 47 48 46 46 43 38 34 33 33 32 31 31 32 31 31 34 33 33

GFSCGP_sfc_temp_009.txt.gz
Temp
65 56 49 53 57 60 58 55 52 55 63 58 54 55 60 61 62 61 60 60 62 65 66 65 65 64 63 62 64 64 62 62 60 58 57 56 55 56 56 57 59 58 58 59
59 52 61 65 64 61 57 54 51 57 62 59 55 56 60 63 62 62 61 61 62 63 65 66 65 62 63 62 62 62 63 61 60 59 57 57 56 56 57 57 57 58 57 57
54 59 68 65 60 57 54 52 51 51 57 59 54 52 58 61 64 65 64 63 64 63 63 64 66 62 60 61 61 62 62 62 60 60 58 57 55 55 55 56 55 56 58 57
58 66 63 60 59 58 50 59 57 55 49 43 55 39 53 57 59 62 63 60 60 61 64 64 62 59 60 60 60 62 63 62 61 59 57 56 56 54 55 55 55 55 56 57
56 57 56 57 57 60 54 59 56 55 49 45 50 43 50 56 55 58 58 60 60 60 61 63 62 63 60 60 60 61 62 61 62 59 56 54 54 54 55 55 55 54 54 56
59 64 60 57 62 61 62 56 55 53 49 35 48 45 44 53 57 59 60 60 60 60 60 61 61 62 63 61 60 59 59 61 61 60 58 55 54 56 53 53 52 52 53 53
57 58 59 63 55 59 56 47 32 32 32 32 52 46 48 58 61 61 58 58 59 59 58 59 58 60 58 57 59 58 57 58 59 57 57 56 56 55 55 52 50 50 50 50
45 41 56 62 55 51 50 48 31 27 28 32 48 40 50 62 64 65 64 60 60 61 61 60 58 58 58 58 58 57 59 59 59 56 55 55 54 55 55 53 50 47 47 49
43 47 60 62 60 57 51 41 52 39 35 29 38 48 59 60 62 63 63 63 59 60 61 59 58 58 57 57 57 55 55 57 57 57 54 53 52 50 49 47 47 48 48 50
52 41 55 59 60 58 54 56 39 34 26 28 37 39 43 52 56 59 57 58 57 58 58 59 57 57 57 56 55 54 55 56 56 55 53 51 49 48 47 47 47 47 46 47
53 44 45 53 52 48 49 45 47 49 38 30 28 34 52 55 57 55 61 62 59 58 56 57 57 57 56 54 54 53 55 55 53 53 50 48 47 47 46 48 47 47 47 46
52 45 32 45 56 59 55 51 51 34 34 33 32 37 58 56 57 61 60 59 57 58 57 57 56 55 54 54 53 55 55 53 52 50 47 46 46 46 45 45 46 46 45 46
50 38 30 38 48 52 48 52 50 46 35 35 26 35 58 59 58 58 53 54 56 57 56 54 54 56 55 53 53 54 55 50 51 48 46 45 45 45 44 44 45 46 45 45
52 44 37 31 39 46 42 46 48 44 27 34 36 42 50 55 53 52 52 52 53 52 53 52 52 53 52 53 54 52 50 50 50 48 45 44 44 44 43 43 43 44 45 43
50 36 42 44 47 48 47 46 46 43 43 36 41 43 50 52 51 50 53 54 54 52 51 51 51 51 51 52 52 50 49 50 50 48 44 42 42 44 46 45 44 43 43 43
50 35 36 37 44 46 41 43 44 44 44 44 45 45 53 54 51 50 50 52 49 49 50 51 52 51 51 52 50 49 47 45 47 44 43 44 44 44 45 45 44 42 41 40
41 35 30 35 39 37 29 38 43 45 48 46 36 43 48 47 49 49 48 48 48 49 49 50 49 50 51 50 48 44 45 46 45 44 44 43 43 42 42 44 43 40 37 36
37 31 32 33 30 26 41 53 52 47 48 48 46 46 48 48 49 51 53 45 47 49 48 48 49 49 46 44 43 44 43 45 44 43 43 43 43 42 42 41 39 36 34 33
46 33 32 30 29 37 42 47 43 42 42 46 45 48 50 49 48 48 53 49 48 48 47 48 49 45 42 42 41 41 41 42 43 42 42 43 42 41 40 37 34 34 32 32
42 37 33 29 24 23 37 48 52 52 35 46 48 45 45 45 36 41 48 50 49 47 48 48 44 42 41 40 44 41 44 42 40 42 41 42 42 40 38 35 33 32 31 31
30 31 28 24 28 32 45 51 51 31 37 47 49 47 46 43 45 49 50 48 47 49 48 44 41 43 43 45 46 42 42 40 42 42 43 42 41 38 36 33 32 31 29 29
31 27 30 26 30 25 50 50 36 44 48 51 48 47 47 47 46 48 47 47 47 45 41 41 41 43 43 47 44 42 40 43 43 42 40 38 37 37 37 31 30 29 27 23
34 38 31 34 33 46 52 49 52 53 50 48 47 46 46 45 46 46 46 46 44 40 38 40 39 42 44 44 44 41 41 43 39 37 36 35 35 34 32 29 28 26 25 20
43 46 36 36 43 48 50 53 53 52 49 49 48 47 47 46 45 43 43 41 39 37 39 39 42 42 41 44 42 42 41 40 39 34 33 33 30 30 29 29 28 22 20 19
41 43 40 39 45 48 49 49 51 49 49 47 48 47 46 45 42 42 42 41 37 40 40 39 39 41 41 42 41 41 40 37 33 31 31 29 28 27 27 28 25 24 24 21
45 43 38 36 47 45 47 49 50 48 47 47 47 45 45 43 41 42 40 40 41 37 40 41 42 42 42 43 39 36 35 33 29 29 28 25 24 24 24 23 24 30 31 32

GFSCGP_sfc_temp_012.txt.gz
Temp
61 53 47 51 53 56 52 49 47 51 58 55 50 51 57 58 54 55 54 56 57 59 60 59 60 59 59 59 60 60 60 59 56 55 54 52 53 54 54 54 57 56 57 57
56 49 57 62 59 55 54 49 47 52 58 53 52 51 54 57 56 56 56 56 57 58 59 61 60 58 60 60 60 59 60 59 58 56 55 55 54 54 55 55 54 55 55 55
51 56 63 60 56 54 50 48 47 49 52 53 52 50 54 58 58 59 58 58 59 59 59 60 61 58 56 58 59 61 60 59 58 57 55 54 52 52 52 53 52 54 55 56
55 61 59 56 54 53 47 55 54 51 46 40 51 38 49 53 54 57 57 56 57 59 60 61 60 56 56 58 57 58 60 59 59 57 54 53 56 56 57 56 53 54 55 55
53 54 54 53 53 55 52 56 53 51 44 42 46 40 48 54 53 53 54 55 55 56 58 58 57 60 61 59 59 59 60 59 60 57 54 52 52 55 57 51 52 51 52 53
56 59 57 54 58 57 58 53 50 48 44 34 44 42 42 48 51 53 55 57 57 54 56 58 59 57 57 57 57 57 57 58 58 57 55 52 51 54 52 51 49 49 48 47
53 54 57 59 52 56 51 43 31 32 30 31 47 42 43 51 56 58 56 54 55 58 56 56 56 57 55 54 55 56 56 58 59 55 54 54 52 52 51 52 51 50 49 48
41 39 53 59 52 48 48 45 30 27 27 32 44 37 46 57 58 59 59 58 59 58 57 55 56 55 55 56 54 56 57 57 58 55 54 53 51 50 50 50 50 47 48 46
40 43 55 58 57 54 49 40 48 37 32 28 36 44 53 56 56 59 58 57 56 56 54 54 55 54 54 53 53 53 53 53 56 53 52 50 50 49 47 45 45 46 46 47
48 39 51 55 57 55 50 52 38 33 23 27 34 36 40 49 52 56 55 51 52 53 54 54 54 54 52 51 52 51 52 54 54 52 49 50 47 46 45 44 43 43 44 45
48 42 44 49 48 45 46 42 44 44 34 26 26 32 47 51 52 50 53 52 51 51 52 52 54 55 56 57 56 53 51 50 50 49 49 46 45 44 43 43 43 43 44 45
49 41 32 42 51 54 49 45 44 29 33 31 32 36 55 51 55 53 51 53 53 52 50 51 51 52 52 51 50 50 51 49 49 48 46 44 43 43 42 42 43 44 44 44
48 37 29 38 45 48 45 48 46 42 33 31 24 31 54 56 54 52 48 50 51 50 49 49 50 52 50 51 50 50 49 47 47 47 44 43 42 42 41 41 43 43 44 45
50 41 36 30 37 42 39 45 46 40 26 33 35 39 47 49 47 49 48 48 49 49 50 49 48 49 48 49 48 49 46 45 45 45 42 41 41 40 41 41 41 42 42 41
47 35 39 41 44 44 44 43 43 40 40 31 38 39 45 43 44 46 48 50 49 49 48 49 47 48 48 49 48 46 45 44 45 45 43 40 41 41 42 41 40 41 43 43
46 34 34 36 41 41 38 42 42 41 41 41 40 40 45 47 48 47 48 49 49 47 49 51 50 49 49 48 47 45 47 46 45 42 43 43 42 43 42 42 41 42 41 40
39 33 29 34 35 34 32 36 39 42 44 42 34 40 44 44 45 46 47 48 47 47 48 48 48 47 47 44 44 42 42 42 44 43 43 42 42 41 40 41 41 39 37 35
34 30 30 31 32 25 41 47 47 42 44 45 43 43 44 46 49 50 49 47 47 49 49 49 47 46 44 42 41 41 42 41 41 40 41 42 40 40 39 38 37 34 34 33
43 34 30 25 29 35 39 44 40 37 39 44 41 45 47 49 47 46 50 49 49 50 48 48 45 43 40 39 40 42 40 40 42 41 39 39 39 39 36 34 33 33 31 30
39 35 29 31 27 25 35 45 49 46 31 44 45 44 45 47 37 42 46 49 49 49 48 46 44 41 39 40 41 40 40 39 38 39 40 42 40 37 34 32 31 31 29 29
28 31 24 20 25 28 41 47 49 26 34 42 47 47 43 41 42 45 47 49 50 47 43 43 41 39 40 42 45 41 38 39 41 41 40 38 37 36 33 31 30 28 27 27
32 27 29 26 26 26 47 47 37 41 42 47 46 44 43 43 44 45 46 44 44 40 40 40 40 37 41 45 43 40 38 41 41 39 37 36 35 34 34 30 28 28 25 21
34 38 31 33 32 43 47 48 47 49 46 43 44 46 44 43 43 43 40 42 41 39 37 38 36 41 43 44 43 39 38 41 37 35 34 32 32 32 31 28 27 24 23 20
41 45 33 36 43 45 47 51 51 47 44 45 44 43 44 41 42 40 40 40 38 36 37 39 41 40 39 41 40 39 40 38 35 32 31 31 29 29 28 27 27 22 20 19
41 42 39 40 44 46 48 47 49 48 47 46 47 45 44 43 41 40 38 38 36 37 39 39 36 38 40 40 37 35 35 34 32 31 30 29 28 26 26 27 24 24 24 21
44 43 37 37 47 45 47 49 49 45 45 45 45 44 44 41 39 38 36 36 38 39 37 38 39 40 41 41 37 35 34 32 30 30 28 24 23 22 23 21 23 29 29 31